AirNav    Bose A20 Aviation Headset
 
 1538 users online  

KZER Schuylkill County/Joe Zerbey Airport
Pottsville, Pennsylvania, USA

GOING TO POTTSVILLE?


FAA INFORMATION EFFECTIVE 15 AUGUST 2019

Location

FAA Identifier: ZER
Lat/Long: 40-42-24.3600N 076-22-22.7500W
40-42.406000N 076-22.379167W
40.7067667,-76.3729861
(estimated)
Elevation: 1729.4 ft. / 527.1 m (surveyed)
Variation: 12W (2000)
From city: 8 miles W of POTTSVILLE, PA
Time zone: UTC -4 (UTC -5 during Standard Time)
Zip code: 17921

Airport Operations

Airport use: Open to the public
Activation date: 10/1959
Control tower: no
ARTCC: NEW YORK CENTER
FSS: WILLIAMSPORT FLIGHT SERVICE STATION
NOTAMs facility: IPT (NOTAM-D service available)
Attendance: MON-FRI 0730-1700, ALL SAT - SUN ON CALL
FOR SVC AFTER HRS 570-617-6002.
Wind indicator: lighted
Segmented circle: no
Lights: ACTIVATE REIL RY 11/29; MIRL RY 11/29 - CTAF.
Beacon: white-green (lighted land airport)
Operates sunset to sunrise.

Airport Communications

CTAF/UNICOM: 123.075
WX AWOS-3: 127.575 (570-544-2778)
HARRISBURG APPROACH: 118.25
HARRISBURG DEPARTURE: 118.25
WX AWOS-3 at N79 (11 nm NW): 119.175 (570-672-0389)
WX ASOS at MUI (19 nm SW): 124.175 (717-861-2536)
WX AWOS-3 at 79PN (19 nm NW): 118.075 (570-271-8192)
  • RAVINE RCO 122.1R 114.6T (WILLIAMSPORT RADIO)

Nearby radio navigation aids

VOR radial/distance  VOR name  Freq  Var
RAVr059/13.8RAVINE VORTAC114.6011W
MIPr154/23.2MILTON VORTAC109.2009W
SEGr110/23.8SELINSGROVE VOR/DME110.4008W
ETXr293/32.3EAST TEXAS VOR/DME110.2009W
LRPr003/35.4LANCASTER VOR/DME117.3009W
HARr063/40.0HARRISBURG VORTAC112.5010W

 
NDB name  Hdg/Dist  Freq  Var  ID
BELLGROVE037/18.232810WBZJ -... --.. .---

Airport Services

Fuel available: 100LL JET-A
AVGAS SELF SERVE WITH CREDIT CARD.
JET-A SELF-SERVE WITH CREDIT CARD.
Parking: hangars and tiedowns
Airframe service: MINOR
Powerplant service: MINOR
Bottled oxygen: NONE
Bulk oxygen: NONE

Runway Information

Runway 11/29

Dimensions: 4599 x 75 ft. / 1402 x 23 m
Surface: asphalt, in good condition
Weight bearing capacity: 
Single wheel: 21.0
Runway edge lights: medium intensity
RUNWAY 11  RUNWAY 29
Latitude: 40-42.385858N40-42.282017N
Longitude: 076-23.021483W076-22.035672W
Elevation: 1729.4 ft.1706.5 ft.
Traffic pattern: leftleft
Runway heading: 110 magnetic, 098 true290 magnetic, 278 true
Markings: nonprecision, in good conditionnonprecision, in good condition
Visual slope indicator: 2-light PAPI on left (3.00 degrees glide path)
PAPI ON CONTINUOUSLY.
2-light PAPI on left (3.00 degrees glide path)
PAPI ON CONTINUOUSLY.
Runway end identifier lights: yesyes
Touchdown point: yes, no lightsyes, no lights
Obstructions: 5 ft. brush, 242 ft. from runway, 157 ft. right of centerline, 9:1 slope to clear2 ft. brush, 220 ft. from runway, 103 ft. right of centerline, 10:1 slope to clear

Runway 4/22

Dimensions: 2523 x 140 ft. / 769 x 43 m
Surface: turf, in good condition
Runway edge markings: RY 04/22 EDGE & DSPLCD THLD MKD WITH ORANGE CONES.
Operational restrictions: NOT MAINTAINED WINTER MONTHS.
RUNWAY 4  RUNWAY 22
Latitude: 40-42.360000N40-42.714500N
Longitude: 076-22.249333W076-21.964667W
Elevation: 1707.1 ft.1714.4 ft.
Traffic pattern: leftleft
Runway heading: 043 magnetic, 031 true223 magnetic, 211 true
Displaced threshold: no200 ft.
Markings: none, in poor conditionnone, in poor condition
Touchdown point: yes, no lightsyes, no lights
Obstructions: none27 ft. trees, 98 ft. from runway, 232 ft. left of centerline, 3:1 slope to clear
APCH RATIO 10:1 TO DSPLCD THLD.

Airport Ownership and Management from official FAA records

Ownership: Publicly-owned
Owner: SCHUYLKILL COUNTY A/P AUTH
240 AIRPORT ROAD
POTTSVILLE, PA 17901
Phone 570-544-6002
Manager: BILL WILLARD
240 AIRPORT ROAD
POTTSVILLE, PA 17901
Phone (570) 617-6002

Airport Operational Statistics

Aircraft based on the field: 29
Single engine airplanes: 23
Multi engine airplanes: 4
Jet airplanes: 2
    
Aircraft operations: avg 77/day *
45% local general aviation
31% transient general aviation
22% military
2% air taxi
* for 12-month period ending 05 September 2018

Additional Remarks

DEER ON & INVOF ARPT.
FOR CD CTC HARRISBURG APCH AT 800-932-0712.
GPU AVAILABLE FOR AC/DC POWER.

Instrument Procedures

NOTE: All procedures below are presented as PDF files. If you need a reader for these files, you should download the free Adobe Reader.

NOT FOR NAVIGATION. Please procure official charts for flight.
FAA instrument procedures published for use from 15 August 2019 at 0901Z to 12 September 2019 at 0900Z.

 
IAPs - Instrument Approach Procedures
RNAV (GPS) RWY 11   download (234KB)
RNAV (GPS) RWY 29   download (229KB)
VOR-A   download (163KB)
NOTE: Special Take-Off Minimums/Departure Procedures apply   download (149KB)

Other nearby airports with instrument procedures:

N79 - Northumberland County Airport (11 nm NW)
74N - Bendigo Airport (12 nm SW)
N13 - Bloomsburg Municipal Airport (18 nm N)
KMUI - Muir Army Airfield (Fort Indiantown Gap) (19 nm SW)
8N8 - Danville Airport (19 nm NW)
 
Loc | Ops | Rwys | IFR | FBO | Links
Com | Nav | Svcs | Stats | Notes
Area around KZER (Schuylkill County/Joe Zerbey Airport)
 
Road maps at: MapQuest Bing Google
 
Aerial photo
WARNING: Photo may not be current or correct
Aerial photo of KZER (Schuylkill County/Joe Zerbey Airport)
Photo by David Newcomer
Photo taken 03-Feb-2017
looking northeast from 4,000 altitude.

Do you have a better or more recent aerial photo of Schuylkill County/Joe Zerbey Airport that you would like to share? If so, please send us your photo.

 
Sectional chart

 
Airport distance calculator
Flying to Schuylkill County/Joe Zerbey Airport? Find the distance to fly.

From to KZER

Sunrise and sunset
Times for 19-Aug-2019
 Local
(UTC-4)
 Zulu
(UTC)
Morning civil twilight05:5209:52
Sunrise06:2110:21
Sunset19:5823:58
Evening civil twilight20:2700:27

Current date and time
Zulu (UTC)  19-Aug-2019 15:04:49
Local (UTC-4)  19-Aug-2019 11:04:49
 
METAR
KMUI 
20nm SW 
191356Z 00000KT 10SM FEW050 BKN210 25/21 A3001 RMK AO2A SLP162 T02520206
KSEG 
23nm W 
191453Z AUTO VRB03KT 10SM FEW070 24/21 A3004 RMK AO2 SLP169 T02390206 53013
KRDG 
28nm SE 
191454Z VRB03KT 10SM FEW030 28/23 A3000 RMK AO2 SLP160 T02830228 55007
K22N 
28nm E 
191457Z AUTO 00000KT 10SM CLR 26/21 A3002 RMK AO2
KMDT 
35nm SW 
191456Z 29005KT 10SM OVC200 29/20 A3000 RMK A02 SLP158 T02940200
KLNS 
36nm S 
191453Z 24005KT 10SM CLR 29/21 A3001 RMK AO2 SLP159 T02890211 56005
KCXY 
37nm SW 
191456Z 26005KT 10SM CLR 28/20 A3002 RMK AO2 SLP163 T02830200 53002
TAF
KMUI 
20nm SW 
191103Z 1911/2017 VRB06KT 8000 BR FEW045 SCT060 QNH2999INS BECMG 1915/1916 23009KT 9999 NSW SCT040 BKN060 QNH2997INS TEMPO 1918/1921 23010G15KT 8000 -TSRA BKN030CB BECMG 1923/1924 30006KT 9999 FEW020 SCT030 QNH2999INS TX32/1918Z TN18/1912Z
NOTAMs
Click for the latest NOTAMs
NOTAMs are issued by the DoD/FAA and will open in a separate window not controlled by AirNav.

 

 
 

FBO, Fuel Providers, and Aircraft Ground Support

  
 Business Name 
 
 Contact 
 
 Services / Description 
 
Fuel Prices
 
Comments
  
Schuylkill County Airport 570-544-6002
no information available

If you are affiliated with Schuylkill County Airport and would like to show here your services, contact info, web link, logo, and more, click here
100LL Jet A
FS $5.21 $4.31 
SS $5.11 $4.21 
 Updated 08-Aug-2019
 
   1 read write
FS=Full service
SS=Self service
Update Fuel Prices
 

Would you like to see your business listed on this page?

 If your business provides an interesting product or service to pilots, flight crews, aircraft, or users of the Schuylkill County/Joe Zerbey Airport, you should consider listing it here.  To start the listing process, click on the button below
 
Add a business
 

Other Pages about Schuylkill County/Joe Zerbey Airport

Update a link
 
Copyright © AirNav, LLC. All rights reserved. Privacy Policy  Contact